Hourly Data Report for October 16, 2015

All times are specified in Local Standard Time (LST). Add 1 hour to adjust for Daylight Saving Time where and when it is observed.

ST LEONARD CS
NEW BRUNSWICK

47°09'28.050" N
67°49'55.014" W
245.00 m
810I001
71019
WIY

Download Data

Hourly Data (October 2015)
Hourly Data Report for October 16, 2015
Temp Definition
°C
Dew Point Temp Definition
°C
Rel Hum Definition
%
Wind Dir Definition
10's deg

Wind Spd Definition
km/h
Visibility Definition
km
Stn Press Definition
kPa
Hmdx Definition


Wind Chill Definition


Weather Definition


TIME
00:00 5.9 4.7 92 18 11   97.91     LegendNANA
01:00 6.5 5.3 92 18 9   97.85     LegendNANA
02:00 6.1 4.9 92 15 13   97.81     LegendNANA
03:00 5.6 4.5 93 13 12   97.69     LegendNANA
04:00 5.5 4.3 92 13 15   97.61     LegendNANA
05:00 5.3 4.5 95 16 9   97.60     LegendNANA
06:00 5.2 4.7 96 17 11   97.60     LegendNANA
07:00 5.4 4.9 97 15 13   97.52     LegendNANA
08:00 5.8 5.3 97 19 8   97.53     LegendNANA
09:00 6.5 6.0 96 18 17   97.52     LegendNANA
10:00 7.1 6.4 95 19 12   97.51     LegendNANA
11:00 8.0 6.5 90 18 13   97.46     LegendNANA
12:00 8.0 6.6 91 20 18   97.45     LegendNANA
13:00 4.8 4.0 95 30 26   97.51     LegendNANA
14:00 3.5 2.3 92 30 24   97.64     LegendNANA
15:00 3.0 1.4 90 31 24   97.77     LegendNANA
16:00 3.3 0.4 81 32 16   97.91     LegendNANA
17:00 2.7 0.5 85 30 20   98.03     LegendNANA
18:00 1.0 -0.6 89 31 11   98.15     LegendNANA
19:00 0.2 -0.8 93 32 11   98.21     LegendNANA
20:00 -1.0 -1.8 95 30 10   98.23   -5 LegendNANA
21:00 -0.9 -1.3 97 34 8   98.24   -4 LegendNANA
22:00 -2.0 -2.3 98 13 2   98.27   -3 LegendNANA
23:00 -1.3 -1.5 98 16 3   98.30   -2 LegendNANA

Notes on Data Quality.

Legend

  • E = Estimated
  • M = Missing
  • NA = Not Available
  • ‡ = Partner data that is not subject to review by the National Climate Archives
Date modified: